This is the latest recevied weather packets stored in our database for station/object AC0MR. If no packets are shown the sender has not sent any weather packets the latest 10 day(s).
| Time | Temp. | Humidity | Pressure | Rain* | Wind** | Luminosity | Snow |
|---|---|---|---|---|---|---|---|
| 1777398319 | 15° C | 54% | 1015.6 hPa | 0 mm | - | 617 W/m² | - |
| 1777397720 | 14.44° C | 53% | 1015.6 hPa | 0 mm | - | 538 W/m² | - |
| 1777397119 | 14.44° C | 55% | 1015.8 hPa | 0 mm | - | 718 W/m² | - |
| 1777396519 | 14.44° C | 59% | 1015.8 hPa | 0 mm | - | 893 W/m² | - |
| 1777395919 | 13.89° C | 58% | 1015.5 hPa | 0 mm | - | 852 W/m² | - |
| 1777395320 | 13.33° C | 59% | 1015.5 hPa | 0 mm | - | 849 W/m² | - |
| 1777394719 | 13.33° C | 60% | 1015.5 hPa | 0 mm | - | 850 W/m² | - |
| 1777394119 | 13.33° C | 62% | 1015.6 hPa | 0 mm | - | 690 W/m² | - |
| 1777393519 | 13.33° C | 63% | 1015.8 hPa | 0 mm | - | 868 W/m² | - |
| 1777392919 | 12.78° C | 64% | 1015.5 hPa | 0 mm | - | 384 W/m² | - |
| 1777392319 | 12.78° C | 68% | 1015.5 hPa | 0 mm | - | 781 W/m² | - |
| 1777391719 | 12.22° C | 69% | 1015.4 hPa | 0 mm | - | 689 W/m² | - |
| 1777391119 | 11.67° C | 73% | 1014.5 hPa | 0 mm | - | 769 W/m² | - |
| 1777390519 | 11.11° C | 72% | 1014.4 hPa | 0 mm | - | 735 W/m² | - |
| 1777389919 | 11.11° C | 74% | 1014.4 hPa | 0 mm | - | 702 W/m² | - |
| 1777389319 | 10.56° C | 74% | 1013.9 hPa | 0 mm | - | 676 W/m² | - |
| 1777388719 | 10.56° C | 77% | 1014.2 hPa | 0 mm | - | 652 W/m² | - |
| 1777388119 | 10° C | 75% | 1014 hPa | 0 mm | - | 493 W/m² | - |
| 1777387519 | 10° C | 74% | 1013.8 hPa | 0 mm | - | 315 W/m² | - |
| 1777386919 | 10° C | 74% | 1014 hPa | 0 mm | - | 308 W/m² | - |
| 1777386319 | 10° C | 75% | 1014.2 hPa | 0 mm | - | 443 W/m² | - |
| 1777385719 | 9.44° C | 76% | 1014 hPa | 0 mm | - | 454 W/m² | - |
| 1777385119 | 9.44° C | 78% | 1014 hPa | 0 mm | - | 301 W/m² | - |
| 1777384519 | 8.89° C | 79% | 1014 hPa | 0 mm | - | 469 W/m² | - |
| 1777383919 | 8.33° C | 78% | 1013.7 hPa | 0 mm | - | 223 W/m² | - |
* Rain latest hour (hover to see other rain measurements)
** Current wind speed in m/s (hover to see current wind gust speed)